{"data":{"norad_id":65538,"epoch":"2026-09-19T11:08:04.311456Z","epoch_age_seconds":201452,"freshness":"STALE","line1":"1 65538U 25200U   26262.46393879  .00015231  00000+0  47332-3 0  9996","line2":"2 65538  97.2884 328.8807 0000762  81.9166 278.2164 15.33435033 58484","mean_motion":15.33435033,"eccentricity":7.62e-5,"inclination_deg":97.2884,"raan_deg":328.8807,"arg_perigee_deg":81.9166,"mean_anomaly_deg":278.2164,"bstar":0.00047332,"rev_number":5848,"period_min":93.906815027096,"perigee_km":465.05133872937,"apogee_km":466.09432010738,"semimajor_km":6843.7098294184,"source":"CELESTRAK","updated_at":"2026-09-21T09:00:35.651480Z"}}